CAPE
2826 2977 2701 2320 2575 2546 2383 2691 2573 2626 2555 2816 2647 2136 1845 1772 1736 1570 1752 1782 1422 1224 1993 2194 2696 2844 2367 2214 1926 2025 2836 2987 2952 3425 3739 3890 3904 3620 3230 4021 3663 3927 4073 3964 3080 2954 3449 3370 3529 3774 3749 3766 3793 3427 3169 3494 3690 3654 4174 4456 4057 3598 3258 3082 2815 2779 2961 2964 2691 2385 2304 2518 2045 2731 3422 3300 2922 3075 2026 2650 2964 2689 2386 2195 2065
2803 2775 2659 2395 2331 2445 2385 2342 2478 2710 2465 2434 2586 2531 2075 2008 2196 2094 1626 1986 1887 1266 1479 1898 2614 2867 2848 2726 2292 2345 3012 3436 3085 3181 3635 3814 3764 3298 3167 3786 4070 3756 4011 4140 4059 3576 3398 3640 3613 3667 4170 3823 3375 3156 3141 2658 2927 3087 3672 3569 3766 4026 3799 3453 3391 3102 3113 3479 3666 3606 2954 2942 2761 2935 2833 2870 2577 2606 3411 3181 3063 2717 2421 2341 2303
2768 3090 2822 2636 2704 2431 2531 2497 2562 2496 2206 2190 2088 2174 2306 1956 2116 2192 1457 1293 1994 1779 1736 1480 2224 2987 2963 3171 2944 2576 3176 3301 3015 2926 3366 3705 3702 3229 2800 2997 3467 3630 3865 4148 3912 3738 3642 3632 3435 3409 3344 3462 3662 3240 2767 2841 2541 2706 3196 3373 3503 3484 4123 4240 3876 3728 3558 3545 3831 3343 2958 3403 3443 3313 3554 3614 3525 3721 3351 3168 2912 2780 2858 3016 3018
2918 2897 2835 2480 2360 2596 2597 2552 2310 2174 2229 2115 2058 2345 2127 1739 2050 2015 1586 1192 1624 2133 2137 1807 2465 3160 3241 3411 3449 2709 3228 3054 2854 2990 3318 3657 3665 3660 3379 3197 3066 3126 3277 3700 3751 3848 3810 3786 3388 3172 3364 3469 3500 3305 3325 3235 3335 3600 3421 3676 4651 3938 3698 4288 4646 4029 3910 3747 3831 3655 3467 3156 2978 3046 3030 2973 3057 3084 3442 3642 3902 3574 3301 3154 3010
2983 2846 2780 2629 2257 2321 2260 2298 2282 2296 2245 1887 2008 1886 1954 1990 1871 1629 1577 1239 1570 1874 2477 2433 2584 3087 3047 3186 3598 3188 2967 3042 2939 2669 2958 3264 3541 3548 3565 3662 3520 3280 3186 3524 4060 3861 3744 3547 3579 3488 3585 3425 3454 3307 3112 3462 3630 3343 3397 3500 3523 3716 3728 3936 4185 4488 4357 4100 3969 4116 4281 4130 3918 3860 3926 3684 3624 3704 3784 3717 3375 3214 3390 3501 3128
2947 2860 2722 2442 2589 2640 2567 2384 2322 2310 2120 1981 1662 1693 1730 2100 2145 2027 1992 1674 1748 1790 2253 2583 2714 2989 2756 2793 3108 3413 3292 3214 3221 2993 2662 2728 3276 3367 3664 3760 3407 3510 3596 3643 3724 3851 3780 3707 3372 3487 3387 3324 3141 3049 3348 3451 3725 3752 3540 3632 3881 3872 3948 3997 4143 4114 4040 3864 3847 3943 4174 4214 4122 4236 4478 4760 4575 4386 4365 4326 4359 4394 4356 4252 3799
3338 3070 2932 2603 2670 2519 2493 2576 2616 2237 2414 2074 1701 1793 1929 2058 2003 1933 1992 1822 1539 1432 1767 2331 2752 3180 3044 2851 2762 3239 3524 3444 3539 3543 3154 2883 3060 3170 3150 3492 3396 3326 3266 3245 3406 3629 3647 3521 3528 3473 3350 3373 3128 3068 3524 3684 3592 3456 3725 3954 3778 3939 4176 4221 4336 4391 4341 4265 4281 4304 4335 4510 4494 4376 4772 4944 4814 4590 4404 4551 4557 4465 4453 4516 4746
3469 3532 3249 2980 2803 2668 2836 2464 2328 2770 2573 2319 2210 2099 1912 1926 2204 2384 2282 2070 1446 1465 1626 2050 2678 2994 3311 3144 3017 3190 3629 3617 3751 3872 3624 3261 3141 3127 3118 3136 3155 3295 3059 3120 3158 3191 3577 3534 2917 3139 3284 3451 3295 3216 3215 3516 3660 3406 3653 3952 4260 4382 4111 3938 4078 4127 4158 4149 4244 4285 4412 4616 4941 4809 4440 4251 4412 4684 4855 4606 4501 4590 4560 4592 4302
3373 3314 3300 3052 3070 2816 2945 2863 2894 2968 2675 2697 2480 2273 2122 2106 2250 2569 2692 2232 1839 1490 1541 1852 2294 2638 3168 3364 3283 3185 3372 3594 3580 3838 3742 3424 3011 2872 3103 3018 2948 2966 3161 2954 3122 3238 3161 3112 3024 2784 3176 3415 3253 3186 2970 3088 3417 3806 3944 4284 4629 4701 4717 4697 4712 4804 4776 4678 4482 4435 4523 4516 4468 4397 4241 4277 4364 4244 4801 5014 4436 4117 4144 4190 4484
3362 3278 3220 3296 3248 3127 3379 3108 2940 3138 3049 2970 2759 2481 2407 2337 2013 2441 2837 2587 2456 2098 1551 2171 2550 2705 3030 3515 3473 3208 3136 3347 3372 3343 3374 3388 3063 2269 2817 3068 2835 2748 3145 3100 3014 3178 2946 2773 2146 2621 2854 3463 2888 2725 2738 2650 2812 3194 3846 4879 4841 4796 4806 4909 5028 5054 5019 4796 4569 4404 4279 4157 4085 3986 4249 4311 4356 4747 4496 4760 4745 4862 4562 4328 4235
3228 3394 3615 3606 3656 3532 3494 3250 3220 3435 3320 3250 3016 2814 2569 2345 2255 2370 2880 2796 2600 2659 2145 2095 2413 2669 2722 2924 3260 3069 2890 2830 3295 3314 3322 3218 3021 2640 2450 3118 3308 3190 2913 3159 3150 2813 2707 2838 2592 2610 3079 3839 3445 2608 2591 2663 2666 2826 2909 3361 5140 6031 5278 5062 4833 4828 4736 4557 4455 4418 4195 3931 3929 3936 4116 3756 3690 4013 4807 4587 4298 4353 4346 4157 4007
2795 3299 3781 3916 4061 3850 3576 3594 3561 3555 3502 3429 3208 3080 2830 2709 2540 2553 2776 2887 2946 2873 2601 2270 2315 2702 2795 2860 3010 3093 3357 3091 3224 3235 3289 3332 3144 2970 2501 2602 2984 3198 3096 2657 2902 2849 2650 2326 2292 2074 2352 2804 3894 3584 2571 2502 2652 2759 2802 2801 2730 2712 3039 4114 4657 4864 5002 4815 4574 4332 4131 4002 4138 4325 4299 3910 5009 4570 4705 4491 4305 4234 4282 4294 4279
3098 3564 3938 4122 4298 4030 3822 3852 3788 3642 3624 3610 3476 3196 2995 3019 2833 2666 2594 3059 3312 3224 2834 2570 2410 2477 2858 3085 3126 3138 3287 2700 2748 3112 3171 3252 3185 3018 2697 2232 2009 2520 2903 2969 2597 2593 2604 2530 2111 1589 1141 3003 3436 4053 3842 2985 2543 2726 2849 2838 2791 2690 2502 2288 2119 2320 2638 2941 3140 3395 3709 3831 3896 4153 4334 5008 4685 4387 4336 4273 4212 4294 4302 4149 4120
3369 3679 4118 4389 4442 4300 4053 4070 4008 3831 3806 3820 3732 3410 3057 3138 2869 2708 2571 3014 3456 3302 3176 2725 2652 2644 2713 3298 3240 3205 3302 2890 2438 2763 3058 3153 3178 3056 3203 2649 2251 1996 2554 3149 3016 2741 2872 2928 2780 2404 2000 2109 3100 3321 4410 4068 3573 2856 2554 2597 2601 2665 2624 2597 2445 2168 1913 1788 1854 2045 2412 2909 3149 3642 4230 4147 3883 3815 3814 3697 4198 4181 3859 3690 3590
3628 3714 4276 4747 4713 4561 4378 4281 4284 4148 4004 3990 3926 3651 3247 3211 3228 2601 2362 2669 3393 3531 3070 2787 2805 2809 2575 3047 3526 3088 2994 2773 2511 2424 2802 3041 3077 3003 3174 2826 2475 2377 2538 2991 3357 3084 2978 3089 3092 2993 2836 2579 2482 3496 4073 4909 5061 4792 4018 3285 3215 3158 3185 3108 2872 2702 2455 2260 2091 1922 2064 2363 2536 2614 2725 3152 3392 3473 3789 4371 4263 3820 3574 3354 3141
4120 4020 4490 4865 4890 4724 4590 4501 4528 4425 4243 4107 4061 3880 3537 3386 3396 2848 2387 2246 2743 3463 3517 2987 3070 3034 2742 2502 2464 2956 2467 2537 2651 2512 2457 2762 2889 2858 2896 3156 2868 2733 2956 3183 3280 3571 3503 3365 3315 3246 3080 3304 3366 2536 2765 3614 4364 5006 5356 5242 4753 4337 4034 3961 3727 3495 3198 2901 2558 2266 2348 2418 2538 2612 2781 3597 4482 4673 4262 3717 3546 3324 3317 3215 3115
4245 4163 4479 4900 4835 4830 4652 4577 4656 4602 4475 4244 4175 4058 3804 3566 3543 3171 2731 2447 2471 2880 3324 3027 3178 3044 2822 2764 2550 2621 2704 2570 2602 2608 2609 2507 2567 2609 2920 3097 3092 2892 2873 3374 3960 4235 4128 3892 4026 3793 3688 3805 3706 3465 2878 2827 3742 4424 4803 5014 5295 5290 5162 5017 4717 4489 4240 4021 3826 3657 3498 3304 3130 2989 3016 3124 3374 3446 3436 3356 3352 3389 3325 3201 3223
4314 4271 4430 4746 4728 4645 4643 4609 4798 4767 4612 4420 4341 4209 4048 3616 3400 3272 2987 2580 2447 2699 3049 3496 3441 3126 2952 2926 2838 2882 2834 3543 2626 2512 2674 2647 2634 2743 2933 3204 3219 3075 3081 3123 3272 3644 3915 4259 4601 4445 4369 4391 4324 3956 3708 3402 3771 4153 4407 4721 4957 5069 4991 4722 4385 4243 4230 4180 4064 3902 3690 3537 3236 3272 3369 3491 3608 3636 3590 3412 3388 3265 3398 3236 2975
4187 4368 4297 4490 4716 4985 5002 4863 4941 4856 4793 4660 4491 4511 4197 3812 3385 3479 2892 2749 2893 3311 3596 3485 3244 3109 2858 2852 2948 3077 2772 3741 2490 2497 2506 2600 2645 2786 3174 3348 3331 3335 3280 3318 3344 3233 3316 3553 3927 4190 4410 4409 4248 4218 4088 3850 3998 4264 4372 4282 4114 4168 4247 4254 4624 4457 4450 4076 3974 3932 3804 3662 3438 3495 3584 3746 3769 3631 3351 3244 3184 3265 3077 2991 2579
4000 4302 4206 4391 4787 5076 4821 5156 5203 4953 5124 5028 4962 5053 4736 3867 3527 3271 3048 2708 2788 3000 3404 3600 3398 3234 3017 3084 3378 3349 3046 3315 2838 2454 2495 2519 2611 2820 3512 3482 3371 3515 3549 3673 3760 3622 3466 3482 3496 3235 3311 3658 3950 3970 3971 4011 4066 4574 4461 4270 4097 4198 4080 4451 4474 4408 4728 4826 4589 4011 3751 3666 3690 3931 4039 3857 3598 3500 3287 3171 3123 3163 3293 3173 3132
3929 4498 4266 4053 4402 4917 4876 5112 5196 5316 5221 5130 4829 4784 4410 3955 3847 3867 3235 2803 2821 2871 2965 3302 3165 3658 3186 3255 3234 3038 3309 3526 3072 2832 2526 2468 2503 2697 3644 3639 3651 3697 3802 3630 3680 3781 3921 3832 3661 3646 3432 3300 3372 3527 3712 3910 3973 4257 4761 4486 4374 6214 4480 4828 5383 4848 4861 5028 5010 5281 5457 4876 4829 4536 4419 4398 4124 3832 3803 3654 3442 3288 3768 3130 2606
3915 4452 4353 4218 4455 4649 4688 5166 5252 5131 5366 5312 5103 4893 4738 4391 4408 4194 3524 3360 3244 3108 2861 3019 3171 3354 3356 3592 3482 3542 3552 3406 3305 2984 2831 2545 2424 2505 3262 3998 3714 3774 3865 3836 3783 3686 3865 4422 4270 3908 3687 3594 3409 3262 3306 3512 3748 3878 4370 4414 4340 4008 3900 4403 4202 4346 4314 4091 4422 4456 4547 4590 4399 4033 3878 3794 3374 3135 2809 3510 3534 3469 3184 2659 2092
4231 4706 4641 4507 4763 5049 5164 5110 4940 4591 5194 5394 5121 4881 4847 4673 4696 4528 4408 4104 3909 3663 3603 3275 2940 3076 3567 3908 3994 4065 4008 3642 3301 3182 2986 2832 2667 2534 2634 3350 3478 3569 3783 3860 3956 3993 4142 4206 4474 4394 4058 3813 3716 3600 3422 3227 3227 3417 3604 3802 3953 3873 3753 3649 3572 3821 3913 3842 3849 3895 4275 4424 4152 3932 3761 3645 3380 3141 2910 2707 2592 2504 2305 1981 1868
4671 4921 4649 4715 4964 4992 5035 4988 4904 4764 5046 5335 5064 4847 4903 4778 4856 4902 4778 4590 4224 3968 3832 3670 3338 2955 3260 3772 3547 3781 4364 4590 3744 3227 3216 3116 2953 2881 2811 2801 3232 3427 3618 3962 4223 4303 4295 4379 4563 4109 4253 4224 4074 3942 3806 3749 3617 3439 3218 3242 3332 3431 3457 3402 3283 3192 3101 3037 2924 3116 3524 3874 3824 3737 3688 3347 3143 3145 3018 2781 2572 2351 2150 2076 1535
4825 4943 4825 4852 4985 4905 4992 5002 5011 4998 4969 5112 5023 4897 4953 4783 4868 5040 5007 4669 4384 4188 4065 3946 3772 3267 2935 3094 3325 3625 3929 4292 4487 3417 3216 3186 3122 3049 2996 2932 2867 3039 3317 3700 3701 4126 4035 4169 4423 4387 4207 4001 4185 4219 4113 4008 3886 3679 3468 3308 3233 3108 3031 2967 2894 2946 2995 2907 2846 3039 3339 3660 3738 3628 3775 3136 3164 3081 2889 2613 2400 2218 2099 2122 1371
4891 5034 4797 4720 4812 4581 4794 4712 5070 5070 5088 4971 5150 4952 4664 4555 4604 5020 4838 4551 4393 4332 4256 3960 3938 3696 3531 3263 3262 3563 3917 4300 4729 3915 3565 3425 3335 3242 3130 3104 3064 2982 2956 3385 3342 3385 3521 3715 3814 3826 3817 3815 3842 3850 3806 3760 3631 3554 3442 3349 3259 3150 3032 2922 2806 2638 2744 2775 2976 3140 3310 3444 3572 3826 3225 3135 3090 2973 2626 2243 2102 2074 1833 1582 1436
4806 4995 4863 4584 4649 4549 4511 4230 4753 4800 5018 4569 4462 4477 4425 4361 4258 4694 4446 4091 4076 4320 4373 4042 4082 3976 3964 3678 3648 3738 3822 4195 4946 4329 3872 3697 3639 3538 3382 3230 3114 3021 3012 2931 2965 3109 3172 3262 3384 3539 3566 3544 3470 3392 3618 3634 3546 3421 3296 3227 3132 3061 2934 2687 2581 2692 2612 2904 3041 3254 3389 3751 3352 3410 3369 3214 2940 2520 2338 2227 2140 2060 1894 1759 1434
4942 4968 4650 4567 4585 4609 4676 3994 4388 3960 4472 4388 4277 4188 4194 4200 4163 4354 4163 4141 4187 4268 4323 4115 4120 4139 4103 3842 3791 3745 3837 3887 4192 5070 4292 3987 3897 3833 3714 3554 3398 3283 3177 3061 2957 2878 2974 3014 3102 3188 3273 3364 3422 3355 3256 3402 3406 3351 3295 3212 3143 2983 2693 2353 2574 2902 3299 3290 3434 3712 3671 3573 3496 3332 3239 3082 2771 2429 2438 2559 2312 2117 2026 1805 1297
4632 4611 4355 4218 3895 4188 4405 4682 4250 3957 4389 4825 4836 4524 4558 4396 4282 4291 4279 4504 4435 4282 4364 4280 4402 4288 4443 4413 4340 4278 3953 3913 4184 4266 4562 4384 4239 4192 4123 4025 3912 3799 3704 3482 3209 2954 2980 3542 3061 3450 3487 3070 3052 3388 3578 3494 3104 3138 3087 3050 3048 2984 2823 2519 2573 2886 3450 3921 3905 3959 3566 3371 3219 3127 3022 2816 2592 2560 2738 2640 2311 2240 1996 1595 1182
4877 4330 4164 3830 3621 3820 3920 4208 4135 3849 4059 4249 4511 4525 4248 3956 5030 4657 4359 4102 4167 4005 3994 4031 4251 4032 4064 4671 4795 4771 4864 4427 4171 4165 4635 4520 4500 4451 4413 4377 4377 4385 4329 4155 3784 3387 3236 3261 3293 3330 3339 3341 3344 3299 3262 3544 3647 3511 3195 3106 2884 2737 2728 2603 2751 3002 3476 4024 3998 3718 3440 3214 2990 2906 2812 2696 2664 2783 2840 2451 2321 2149 1863 1508 1063
4885 4840 4409 4275 3720 3552 3840 3922 4243 4554 4432 4550 4780 4322 4147 4009 3926 4024 4066 3978 3958 3957 4062 4099 4194 4298 5582 4998 6086 4498 4727 4917 4541 4295 4446 4575 4701 4719 4695 4634 4574 4554 4487 4385 4154 3815 3480 3326 3354 3369 3394 3420 3443 3461 3465 3448 3414 3316 3186 3066 2974 2908 2811 2858 3189 3063 3355 3665 3614 3488 3288 3099 3042 2983 2892 2834 2870 2810 2561 2348 2284 2056 1731 1432 839
5009 4818 4604 4584 3793 3542 4616 4510 4418 4781 4768 4718 5548 4375 4058 3728 3710 3804 4037 3993 3839 3768 3873 4097 4163 4315 4386 5323 5395 4360 4430 5244 5241 4866 4496 4427 4665 4591 4729 4750 4726 4672 4499 4159 4049 3938 3711 3497 3426 3446 3457 3472 3504 3518 3540 3543 3530 3441 3326 3209 3094 3009 2942 2907 3092 3858 3546 3557 3427 3193 3078 2960 2817 2700 2508 2336 2355 2377 2470 2466 1912 1768 1635 1237 584
3380 3679 4527 4674 4341 4152 4734 4876 4478 4874 5066 4724 5668 4868 4758 4433 4113 3654 3976 4063 3892 3660 3749 4050 4399 4528 4546 4633 5044 4732 4678 5083 5224 5132 4981 4850 4774 4804 4824 4836 4836 4819 4572 4023 3609 3571 3629 3586 3485 3503 3528 3550 3593 3620 3586 3547 3519 3470 3348 3269 3212 3149 3071 3048 3059 3711 3311 3284 3068 2981 2846 2796 2688 2394 2368 1906 1926 1781 2177 2278 2029 1589 1453 1127 486
2759 2824 3159 3684 4572 4275 4671 5307 4619 5057 6312 4818 5571 5216 4977 4675 4764 4225 3883 4201 4207 4102 3889 4050 4300 4476 4616 4449 4387 4901 4958 4907 5000 5119 5158 5146 5138 5141 5110 5051 4953 4828 4417 4005 3706 3549 3440 3464 3520 3555 3591 3604 3607 3605 3563 3532 3469 3418 3535 3269 3229 3173 3889 3284 3157 2960 2908 2904 2831 2592 2748 2492 2193 2392 1952 1992 1878 1884 1862 1689 1493 1426 1238 812 287
2451 2027 2230 3155 3877 4288 4582 5793 4911 5038 6248 5973 5572 5173 4983 5080 4988 4929 4336 4256 4349 4392 4316 4174 4146 4302 4422 4593 4669 4654 4630 4720 4790 4714 4849 4981 5044 5062 5022 4942 4857 4668 4336 3912 3757 3618 3466 3392 3423 3478 3726 3774 3616 3573 3537 3612 3534 3390 3734 3235 3204 3384 3186 3192 3175 3047 2885 2868 2762 2499 2275 2224 1975 1756 1667 1834 1949 1972 1697 1353 1281 1231 935 532 24
2287 2239 2421 3004 3582 4153 5551 6167 6928 6155 6001 6779 6694 5728 5691 5425 5064 5227 5049 4759 4659 4972 4957 4425 4340 4241 4253 4302 4348 4433 4533 4553 4576 4664 4768 4743 4757 4746 4722 4679 4558 4420 4244 4019 3717 3556 3449 3499 3395 3676 3868 3996 4044 3780 3540 3560 3965 3958 3799 3189 3174 3181 2979 2922 2988 3099 2945 2900 2627 2285 2206 2092 1995 1706 1644 1867 1383 1399 1225 989 1052 1053 793 512 0
2597 2716 3124 3322 3344 4083 5242 5596 5997 6410 6079 6106 5889 5919 5334 4790 4672 4419 5030 5374 5295 4986 4436 4489 4426 4509 4514 4491 4386 4275 4221 4217 4259 4342 4489 4597 4642 4629 4576 4443 4183 3936 3759 3651 3566 3529 3466 3500 3806 4048 4165 4237 4396 4363 3900 3515 3952 3928 3475 3218 3080 2983 2852 2785 3012 2989 2833 2678 2400 2074 2009 2003 2088 1965 1856 1606 1353 905 962 1043 1014 723 680 539 0
2143 2565 3064 3291 3217 4160 4035 4391 4154 4765 4750 4732 5425 5011 4626 4988 5049 5134 5022 5183 4958 4236 4386 4420 4450 4360 4353 4347 4350 4497 4507 4434 4282 4147 4095 4069 4092 4163 4206 4177 4116 3994 3870 3713 3561 3538 3554 3503 3996 4202 4574 4684 4139 4091 3935 3726 3633 3560 3343 3242 3026 2810 2792 2916 2972 2875 2762 2353 2090 2137 1877 2015 1785 1628 1485 1314 1256 906 833 696 460 526 638 485 48
1646 2143 2604 3021 3248 3546 3707 4080 4153 4420 4417 4151 4007 3899 3757 3778 3878 4442 4973 4720 4706 4503 3876 4011 4073 4065 3913 3726 3588 3562 3622 3946 4176 4333 4240 4154 4043 3981 3934 3853 3907 4172 3863 3662 3545 3523 3569 3798 3626 3871 3948 3957 3999 4089 3963 3846 3669 3576 3466 3247 3099 2862 2817 2852 2884 2704 2374 2166 2104 1953 1737 1521 1577 1489 1599 457 624 697 564 503 432 262 109 0 0
1459 1846 2005 2142 2572 3006 3053 3170 3365 3904 3778 3510 3299 2999 3169 3407 3499 3825 3824 3601 3265 3567 4158 4025 3807 3665 3535 3301 3300 3250 3158 3117 3166 3193 3344 3586 3757 3725 3650 3569 3573 3723 4166 4250 4114 3961 3666 3561 3654 3774 3748 3852 3891 3910 3931 3771 3586 3116 3194 3356 3184 3034 2978 2804 2683 2398 2228 1899 1766 1582 1077 1358 1316 1219 1042 570 636 628 606 414 0 0 0 0 0
1223 1738 1896 1660 1882 1841 1868 2667 2812 2348 2277 2461 2658 2789 2937 3020 3166 3284 3244 3178 3212 3351 3295 3376 3401 3224 3073 2905 2883 2786 3015 3117 3058 3005 3028 3049 3052 3158 3246 3324 3457 3567 3669 3942 3963 3840 3874 3795 3725 3728 3718 3647 3638 3788 3847 3748 3586 3404 3287 2914 2697 2590 2598 2527 2537 2274 1855 1639 1140 1232 1227 892 657 458 442 419 316 404 232 0 0 0 0 0 0
1060 860 1126 1344 1584 2084 1786 1915 2491 2505 2346 2416 2568 2714 2874 3051 3216 3278 3440 3511 3458 3407 3419 3388 3392 3365 3213 3056 2844 2936 3030 3175 3242 3265 3257 3208 3109 3196 3330 3430 3497 3554 3624 3713 3883 4058 4035 3886 3856 3813 3606 3457 3432 3469 3498 3221 3062 3069 3003 2808 2662 2731 2670 2512 2256 1633 1544 1567 1359 782 756 764 484 653 616 655 466 361 283 0 0 0 0 0 0
1294 930 1202 1139 1312 1395 2012 2268 1999 2176 2290 2293 2456 2680 2825 2855 3010 3117 3073 3185 3274 3334 3306 3360 3186 3057 2952 2655 2712 3117 3287 3415 3584 3637 3505 3443 3407 3356 3387 3443 3490 3594 3633 3744 3881 4004 4022 3893 3751 3696 3640 3612 3576 3239 2739 2715 2881 2896 2553 2264 2352 2243 2080 1977 1847 1633 1169 1084 893 900 872 534 576 532 418 412 388 254 218 248 264 245 3 7 0
727 993 1037 1228 1462 1441 1547 1713 1781 1645 1772 2030 2226 2398 2476 2620 2536 2514 2686 2726 2740 2724 2720 2711 2684 2401 2521 2626 3149 3368 3433 3402 3483 3439 3455 3476 3519 3483 3464 3489 3496 3566 3616 3642 3718 3776 3795 3727 3651 3663 3508 3114 3318 3268 3098 2873 2746 2575 2348 2173 2077 2032 1985 1900 1913 1640 1104 1032 1056 1085 721 748 495 504 466 361 243 159 215 190 177 55 0 0 0
570 915 960 1277 1381 1480 1645 1804 1657 1186 918 1130 1366 1630 1970 2132 2187 2170 2038 2023 2170 2313 2279 2280 2006 1987 2391 2814 2953 3207 3144 3093 2966 2977 3140 3242 3372 3440 3535 3578 3597 3618 3638 3718 3801 3874 3912 3926 3928 3746 3634 3536 3298 2926 2692 2580 2327 1977 1773 1756 1872 1954 1940 1856 1138 624 522 471 656 771 737 672 439 0 0 28 0 8 15 4 0 0 0 0 1
794 719 820 1132 1204 1290 1425 1501 1364 948 628 400 332 275 224 0 0 0 0 71 400 643 841 1202 1528 1933 2186 2325 2347 2360 2372 2392 2488 2576 2538 2664 2976 3195 3321 3414 3457 3463 3424 3497 3599 3660 3611 3458 3256 3024 2892 2799 2648 2525 2406 2169 1888 1744 1664 1607 1569 1609 1477 1541 1524 1055 907 813 850 684 574 560 350 217 3 6 4 6 1 0 0 0 0 0 0
582 658 532 680 819 825 1098 1055 1056 953 664 484 166 0 0 3 6 0 1 48 193 380 490 758 1053 1369 1558 1651 1750 1823 1965 1933 1968 2075 2219 2367 2453 2612 2849 2977 2867 2604 2332 2250 2302 2400 2410 2369 2341 2257 2228 2197 2414 2366 2090 1854 1804 1740 1632 1504 1374 1347 1274 1275 1208 1148 1056 865 770 313 7 0 0 0 0 0 0 0 0 0 0 0 0 0 0
2 1 177 479 572 658 665 833 869 756 667 511 308 1 1 2 15 42 82 113 158 216 297 438 654 707 966 1171 1260 1470 1547 1626 1696 1774 1897 2047 2137 2214 2202 2098 2077 2020 2076 1950 1894 1792 1754 1772 1794 1818 1974 2215 2536 2342 2081 1878 1737 1648 1656 1475 1276 1178 1171 1068 940 950 850 647 264 0 0 0 0 0 0 0 0 0 0 0 0 0 0 0 0
2 4 4 4 93 286 126 361 598 448 320 226 76 5 5 8 8 10 31 110 195 276 305 252 296 410 599 754 963 1073 1093 1129 1221 1373 1437 1460 1448 1547 1684 1657 1706 1766 1724 1666 1585 1466 1538 1534 1611 1606 1581 1749 1871 1823 1651 1574 1499 1405 1420 1262 1131 1052 816 523 506 630 0 0 5 1 0 1 3 0 0 0 2 2 0 0 0 0 0 0 0
1 1 1 2 2 1 4 2 3 1 1 3 4 4 4 14 14 22 25 58 114 182 226 288 370 392 385 360 411 433 516 708 876 949 1025 1080 1118 1204 1301 1320 1347 1357 1332 1256 1191 1228 1222 1326 1378 1416 1531 1506 1506 1513 1615 1598 1489 1322 1203 1063 864 594 164 0 0 0 0 0 0 0 0 0 0 0 0 0 0 0 0 0 0 0 0 0 0
3 2 2 1 1 4 4 3 1 0 1 2 3 3 6 36 59 29 49 56 5 5 31 120 48 192 321 418 423 385 355 328 356 407 387 547 617 689 668 668 734 849 934 944 934 861 880 1066 1195 1198 1278 1387 1355 1332 1299 1359 1312 1081 775 522 267 0 0 0 0 0 0 0 0 0 0 0 0 0 0 0 0 0 0 0 0 0 0 0 0
Wind_Speed
15 17 19 21 23 22 19 17 13 13 13 13 12 11 11 11 10 10 11 8 8 8 10 11 10 8 7 5 4 4 2 1 2 2 3 5 7 8 8 8 10 10 11 12 13 12 12 12 12 12 11 11 9 6 5 5 4 4 4 4 5 4 4 6 8 11 10 10 11 11 10 9 10 12 11 12 12 15 19 19 20 20 20 21 20
13 15 17 20 22 23 21 19 16 15 14 14 13 12 12 12 12 12 10 9 9 10 10 10 10 9 6 5 2 1 1 1 1 2 2 4 6 7 9 7 9 10 10 11 12 11 9 10 10 11 11 12 10 9 7 5 4 4 4 5 5 4 5 5 6 8 11 7 8 8 9 10 11 10 12 13 15 15 17 18 18 19 19 19 18
14 15 16 19 21 24 24 22 19 16 15 15 13 13 13 12 13 12 10 10 11 11 13 9 10 9 7 6 3 3 3 2 1 1 1 3 5 7 7 8 8 9 11 12 12 11 10 9 10 10 10 10 11 10 8 6 4 3 4 5 5 4 3 4 4 7 8 8 5 7 6 6 8 9 12 16 17 17 17 17 17 17 17 17 17
14 16 16 17 20 23 24 24 21 19 16 16 16 15 15 14 13 12 11 10 11 13 14 11 10 10 8 6 5 4 5 4 3 1 2 3 4 5 5 6 8 9 10 11 12 12 12 11 10 10 10 9 9 8 8 7 4 3 2 1 1 2 2 2 3 4 5 8 5 5 4 5 7 8 10 13 14 13 14 14 15 17 17 17 18
14 16 18 18 19 20 22 23 22 20 18 18 17 17 17 16 16 13 13 11 12 14 14 13 11 10 9 7 7 5 5 5 4 3 2 3 5 6 6 5 7 9 10 9 10 11 11 10 10 10 8 8 7 7 7 6 6 3 2 1 1 1 2 1 2 2 3 6 5 3 4 5 8 10 11 11 12 12 12 14 15 17 17 18 20
13 17 18 19 20 21 21 21 21 20 19 19 19 19 18 18 18 16 15 13 14 15 15 14 13 11 10 9 8 8 7 7 6 5 4 4 6 7 7 7 7 9 10 10 9 9 9 10 9 9 9 8 7 6 6 7 6 5 3 1 1 2 1 0 0 2 3 4 3 2 2 4 6 9 9 11 12 12 13 15 16 17 19 21 23
12 16 18 19 19 20 21 20 20 20 20 19 21 21 19 19 19 18 17 16 14 15 15 15 15 13 12 11 9 10 9 8 8 7 5 6 8 8 8 10 9 9 9 10 10 10 10 9 8 8 8 8 8 7 6 6 6 5 4 3 1 2 2 2 1 1 1 2 1 2 3 4 7 10 9 11 12 13 13 13 15 18 20 22 21
12 15 17 17 18 21 20 21 20 20 21 21 22 22 21 20 20 21 20 17 15 15 16 17 17 16 15 13 11 11 10 10 10 9 8 8 10 10 9 9 11 10 10 10 10 9 9 10 10 9 8 7 8 7 6 5 6 6 5 3 3 3 2 2 3 2 1 1 1 2 3 4 5 7 6 6 8 10 13 14 15 17 19 20 22
12 15 15 15 17 19 20 21 20 20 20 21 21 22 22 22 22 22 22 19 17 15 17 19 18 17 17 16 13 12 11 11 11 11 11 10 10 11 11 10 10 11 11 11 10 9 8 9 11 11 10 13 12 10 8 6 6 6 6 5 4 3 3 3 3 3 2 2 0 1 2 3 5 5 5 6 8 12 13 15 15 16 17 19 21
13 13 14 14 16 18 20 20 21 21 21 20 19 20 23 24 23 22 23 21 20 18 18 20 20 19 19 19 16 13 13 13 12 14 14 13 12 11 11 11 10 10 12 11 10 10 10 9 9 13 15 17 17 15 13 10 8 5 6 8 6 5 4 4 4 4 3 2 2 2 3 4 5 5 5 6 7 8 11 11 12 12 14 16 20
14 13 13 15 16 17 18 18 20 21 22 21 19 19 20 24 24 24 24 23 22 21 19 19 20 20 20 19 18 15 13 13 16 17 17 16 14 12 12 13 12 11 11 11 10 9 9 9 8 6 6 10 14 17 15 13 11 8 6 5 6 7 6 5 5 5 4 3 3 4 4 4 5 6 6 5 7 8 10 12 11 12 13 14 14
13 13 14 16 17 17 16 18 18 19 20 20 21 19 18 21 23 24 24 24 24 23 20 19 20 22 21 20 19 17 15 15 21 20 19 18 16 14 12 13 13 13 12 11 10 9 8 8 8 8 8 8 10 12 12 12 11 10 8 7 6 4 6 8 8 8 7 6 5 5 4 4 6 7 5 6 9 9 10 10 12 12 14 17 18
15 16 16 17 17 17 16 17 17 17 18 20 20 20 18 18 20 22 22 25 26 25 22 20 20 21 22 22 20 19 17 17 22 22 21 20 17 15 13 13 13 14 13 12 10 10 9 8 6 7 7 12 12 12 12 10 9 10 9 7 5 4 2 2 6 7 8 7 5 4 3 4 6 9 9 8 10 9 10 11 13 14 15 16 18
18 17 17 16 16 17 17 17 17 17 17 18 19 19 18 17 18 21 22 25 26 25 23 22 21 21 21 23 22 21 18 21 24 24 23 21 19 16 13 14 13 13 14 13 11 10 11 10 9 8 8 8 9 11 12 10 9 8 7 6 6 3 2 2 2 2 5 5 5 4 3 6 5 10 11 10 7 8 9 11 14 14 15 16 17
20 19 18 17 16 16 16 17 18 18 18 17 17 17 17 16 17 19 20 21 24 25 24 23 22 21 21 22 24 22 18 24 26 25 24 23 21 18 14 13 14 13 13 13 13 12 11 11 10 10 10 9 9 10 11 11 11 10 8 6 6 7 8 8 10 10 8 10 7 6 4 5 5 7 9 10 10 11 13 15 17 17 15 15 16
22 20 19 18 15 15 15 16 17 19 19 18 16 16 16 17 17 18 19 19 21 23 24 23 22 21 22 21 21 22 20 28 26 26 26 24 23 20 16 14 13 13 14 13 14 14 13 12 11 10 10 10 11 11 10 10 10 9 9 9 9 10 10 10 8 9 9 10 9 8 9 9 9 11 13 14 15 16 16 17 18 17 16 16 16
21 20 19 19 17 15 15 15 16 18 20 19 17 16 17 17 17 18 18 19 20 21 22 22 23 21 22 22 19 21 22 27 27 27 27 26 25 21 17 15 13 11 12 14 15 15 14 13 13 11 11 11 10 13 11 11 9 8 9 9 10 11 12 13 11 9 9 10 10 11 10 10 12 11 14 18 18 19 19 17 16 18 19 19 19
19 20 20 21 19 16 16 15 15 17 18 19 18 16 16 16 17 17 17 17 18 20 21 21 21 20 21 21 21 21 21 28 27 26 27 29 27 22 18 16 14 13 13 13 14 13 12 11 12 12 11 11 12 14 14 13 9 9 9 9 10 10 12 14 17 15 9 8 9 10 10 8 12 16 17 16 21 24 22 17 17 20 21 23 22
19 20 22 23 21 19 18 16 15 16 16 18 20 19 17 17 17 18 17 16 17 20 21 21 20 19 19 19 21 22 19 26 26 27 26 28 25 20 18 16 14 15 15 15 15 13 12 11 11 11 11 11 11 14 15 15 11 10 10 10 10 10 13 17 16 15 19 18 14 12 11 11 15 17 16 17 18 21 23 20 19 20 20 23 24
21 21 23 24 24 21 18 17 16 16 16 18 20 20 19 18 18 18 17 16 17 18 20 20 19 18 18 18 20 21 18 22 25 25 27 26 24 20 17 15 14 15 17 17 17 16 15 15 15 15 14 12 12 15 16 16 12 11 12 11 11 11 15 17 15 15 16 16 16 16 14 17 19 19 19 20 20 22 24 25 24 23 23 24 25
26 25 24 24 24 22 20 19 17 17 17 19 21 21 19 19 20 20 18 17 17 17 17 19 18 18 17 17 17 17 18 17 22 23 23 23 21 18 15 13 15 16 18 18 17 18 18 17 16 17 18 16 15 15 17 16 13 12 12 11 12 20 25 20 21 22 22 19 19 19 22 22 21 22 23 23 23 24 25 27 26 26 25 27 28
31 29 26 24 23 22 22 21 19 18 19 21 22 21 19 19 21 22 19 18 17 17 17 17 18 18 17 18 17 17 18 15 22 18 19 19 19 17 13 13 15 17 18 18 18 17 17 18 18 17 20 19 17 16 16 17 15 13 11 11 17 25 19 22 21 21 19 19 18 18 20 21 20 20 21 22 20 24 25 30 30 31 30 31 30
34 33 30 27 24 23 24 24 22 19 19 21 23 22 21 20 22 22 21 20 18 16 16 16 17 18 19 18 18 16 16 14 19 18 15 16 16 14 12 12 16 17 18 18 19 18 17 16 15 17 20 20 20 19 19 17 17 15 12 12 16 20 20 18 18 19 19 19 20 18 20 21 21 22 23 21 24 29 31 30 31 31 33 32 32
36 37 34 30 27 24 24 24 24 21 21 23 24 23 21 21 22 22 21 20 18 16 15 15 16 16 16 16 14 14 15 15 16 17 16 16 14 15 13 10 19 17 18 17 17 16 12 11 11 12 19 21 21 21 20 19 16 14 14 13 14 17 18 16 17 18 18 18 18 19 19 22 22 23 23 27 28 30 32 31 33 33 33 34 34
39 39 37 34 30 25 24 24 24 23 23 25 25 23 21 22 21 21 20 19 16 15 15 16 15 14 13 12 13 14 15 14 19 14 16 16 16 15 14 14 13 16 15 14 12 13 17 17 16 13 13 17 21 22 20 20 18 15 15 16 17 20 20 19 19 20 19 19 19 20 21 22 23 22 27 29 30 31 31 32 33 34 34 35 35
41 40 38 36 31 25 23 23 23 23 25 26 24 22 21 21 20 20 20 18 16 15 15 16 15 13 11 11 12 13 15 14 18 19 16 15 14 15 16 15 13 12 12 11 16 22 18 19 20 19 18 15 15 17 18 20 21 19 17 20 23 21 21 21 22 22 21 22 22 23 24 24 23 28 31 31 31 31 31 33 34 34 34 36 36
41 40 39 37 33 27 24 22 23 23 26 25 22 20 20 20 19 20 19 16 15 15 15 15 15 13 12 12 13 14 14 14 15 19 19 19 17 16 14 11 9 9 11 13 19 17 17 13 15 17 17 19 16 16 17 21 23 22 20 20 21 21 22 22 24 24 23 24 24 25 26 26 32 33 32 33 33 30 32 36 36 35 35 38 38
41 39 39 39 34 28 26 25 25 24 25 22 21 20 19 18 18 18 17 16 15 15 15 15 14 14 13 13 14 14 12 14 13 17 19 21 20 21 19 18 18 18 14 14 13 13 15 20 19 20 20 18 16 18 19 22 23 24 23 22 21 21 21 22 23 23 24 25 25 27 28 33 32 32 33 34 33 32 35 38 38 37 37 39 40
41 40 40 37 32 30 28 29 26 25 24 21 21 21 19 18 19 18 16 16 16 15 16 16 17 16 17 16 16 15 15 14 14 16 20 20 22 20 20 16 16 17 14 15 13 12 12 16 17 18 19 19 19 19 20 22 23 23 24 24 24 24 23 24 24 24 24 26 27 30 33 32 33 34 35 36 34 35 37 40 40 39 39 39 38
42 40 39 35 31 30 28 27 28 25 22 20 22 29 35 35 27 18 16 16 16 18 20 18 18 18 18 20 18 16 14 14 16 16 25 23 22 22 20 20 20 18 18 21 19 16 16 14 15 18 19 19 20 20 22 23 24 24 24 24 25 26 27 26 26 27 28 29 31 32 34 35 36 36 38 38 39 39 41 42 41 41 41 40 39
44 42 40 36 33 32 30 28 28 25 22 21 26 28 27 33 39 37 27 20 26 30 27 27 29 28 23 20 24 28 19 16 17 20 25 23 21 21 22 23 23 21 26 28 22 20 20 19 18 19 20 20 20 21 22 24 24 24 25 27 27 26 28 29 30 30 30 32 34 36 36 38 39 40 41 40 42 42 43 41 41 41 41 40 40
45 42 39 39 36 36 33 32 29 24 23 23 27 26 26 26 29 36 40 34 34 35 33 33 34 34 34 31 27 25 28 24 22 25 23 22 21 24 26 28 27 28 31 35 27 22 21 22 22 22 22 22 22 24 24 24 26 26 28 29 30 31 30 29 33 36 36 37 38 39 39 41 42 43 43 43 46 46 45 41 38 39 39 39 43
53 49 41 40 40 37 34 32 28 23 23 23 26 25 24 24 25 26 31 37 38 37 35 35 36 36 37 38 35 31 29 29 27 28 27 26 27 28 29 31 31 33 37 32 26 25 25 26 25 26 27 26 26 26 27 26 27 29 31 32 33 34 34 35 39 43 42 40 41 42 44 46 44 45 47 48 50 46 44 40 37 38 39 39 43
47 55 57 48 41 38 33 32 27 23 25 25 25 22 22 22 23 25 25 25 30 35 38 39 38 39 41 40 38 38 37 36 35 35 35 34 34 33 36 36 38 34 33 31 31 30 31 29 28 28 29 28 28 29 28 30 31 30 33 35 37 38 40 41 42 44 45 44 44 46 46 45 47 50 49 50 47 45 45 38 36 35 37 39 42
54 57 54 48 42 37 33 32 29 26 27 27 26 24 24 23 23 24 23 25 26 27 27 32 37 39 36 36 39 40 39 38 39 39 39 41 43 45 46 41 36 32 31 30 34 36 35 33 31 30 29 28 29 29 29 31 34 35 37 40 40 43 45 42 44 47 48 47 48 47 47 48 47 46 45 48 51 45 42 37 35 34 37 38 nan
46 50 49 45 43 38 40 39 34 30 29 31 32 30 29 26 25 25 26 26 27 29 29 34 35 37 44 44 44 43 43 42 41 40 41 44 45 48 41 37 37 36 36 35 35 37 37 36 34 32 31 29 30 31 31 31 35 38 42 45 45 45 43 44 44 47 50 50 48 47 49 47 46 45 44 44 45 41 39 36 40 38 39 40 nan
44 46 44 40 35 38 42 39 38 37 36 37 35 35 33 30 30 28 30 31 31 31 36 37 36 37 39 40 43 46 47 47 47 47 44 41 38 39 40 40 39 40 39 40 39 38 38 36 35 34 33 31 31 31 33 33 36 42 47 47 46 46 42 43 44 47 50 51 49 50 50 49 47 49 46 38 36 35 39 42 45 42 41 41 nan
57 60 55 50 44 43 39 40 39 42 42 41 39 36 34 33 34 33 34 34 38 39 37 36 36 36 37 38 39 41 44 46 49 49 46 45 41 38 40 41 41 40 40 41 41 39 38 38 36 33 34 36 37 38 37 38 42 47 47 45 44 44 47 49 51 50 50 50 49 48 49 47 49 52 46 35 33 32 38 43 44 44 44 45 nan
50 54 58 54 48 43 40 40 40 40 41 41 41 41 40 39 38 38 38 41 43 42 41 41 40 40 40 40 41 43 46 45 43 41 42 40 40 39 39 40 39 37 38 40 40 40 38 38 43 43 41 38 37 38 39 41 43 44 45 44 43 43 46 45 49 51 51 49 50 49 50 48 48 49 44 42 42 40 41 43 43 45 48 nan nan
48 46 48 54 46 45 43 43 43 47 50 50 49 44 43 43 42 42 43 49 50 48 47 46 45 44 43 44 46 44 45 43 40 39 40 39 39 38 38 39 40 39 38 38 37 38 43 47 44 42 41 38 37 39 40 43 45 45 44 43 43 45 47 47 49 51 52 51 52 52 50 47 45 46 45 43 44 43 44 46 nan nan nan nan nan
50 54 54 53 53 47 48 53 53 52 52 52 52 52 51 49 49 50 51 51 50 50 49 49 47 45 44 46 50 48 40 38 38 39 38 38 39 40 43 44 40 39 40 43 43 44 44 44 43 41 40 40 40 41 42 43 44 46 48 48 48 48 48 47 49 54 53 49 53 53 53 50 48 46 44 48 48 46 47 nan nan nan nan nan nan
57 56 56 55 55 55 56 55 55 56 54 53 53 51 50 50 49 48 49 51 52 51 51 50 49 46 48 55 53 50 45 44 43 43 43 44 45 45 44 44 41 40 42 43 42 43 42 42 41 40 40 41 43 44 46 46 44 45 47 50 49 49 48 47 50 50 51 54 55 51 48 49 49 49 51 53 54 53 50 nan nan nan nan nan nan
59 58 58 57 58 57 55 53 52 52 51 51 52 51 50 50 48 47 49 50 51 51 51 51 49 47 48 52 54 51 45 43 43 43 43 43 43 44 43 42 42 43 43 43 43 42 43 46 46 46 46 46 47 46 47 47 46 48 49 50 50 50 50 51 54 55 56 55 53 51 49 51 53 54 56 54 52 52 48 47 49 50 nan nan nan
61 61 60 58 56 55 54 52 52 52 52 53 52 51 50 50 49 49 50 52 52 52 52 51 48 46 46 46 47 46 44 42 42 43 43 43 43 43 42 41 41 42 43 43 43 43 45 47 48 48 49 50 50 52 51 51 52 53 53 53 53 53 54 53 54 55 54 53 52 51 51 55 56 54 55 55 52 49 48 50 48 nan nan nan nan
63 62 61 59 58 57 57 55 54 54 55 55 54 53 53 52 52 52 53 54 54 53 50 48 47 46 44 45 44 44 42 41 42 43 43 43 44 43 43 43 43 43 43 44 43 44 46 47 49 50 51 51 52 53 54 54 55 55 53 52 52 53 51 51 53 55 58 56 54 54 56 58 58 nan nan nan nan nan nan nan nan nan nan nan nan
65 64 64 63 63 62 61 60 60 59 59 58 58 57 56 nan nan nan nan nan 53 51 49 48 48 49 47 46 44 45 44 43 43 43 45 45 45 45 46 47 47 47 47 47 48 48 48 49 51 52 53 52 52 53 53 54 55 55 55 54 54 53 50 49 51 54 58 58 58 59 60 61 61 60 nan nan nan nan nan nan nan nan nan nan nan
68 67 67 67 68 67 66 65 64 63 63 62 62 nan nan nan nan nan nan nan 55 54 53 50 50 50 49 49 49 48 47 47 47 47 48 48 48 48 49 50 51 51 51 51 51 51 52 53 53 55 55 54 54 55 54 54 54 55 55 55 55 54 52 51 54 56 56 55 56 59 nan nan nan nan nan nan nan nan nan nan nan nan nan nan nan
nan nan 69 68 69 71 72 70 68 67 65 65 65 nan nan nan nan nan nan 59 60 57 54 53 53 53 52 52 52 51 50 50 50 50 51 51 51 52 52 54 54 54 55 56 57 57 57 56 56 57 57 57 56 55 55 55 56 57 57 57 57 56 57 60 60 60 57 56 57 nan nan nan nan nan nan nan nan nan nan nan nan nan nan nan nan
nan nan nan nan nan 72 74 74 71 67 65 66 nan nan nan nan nan nan nan 61 61 59 57 57 58 57 56 56 55 55 55 54 54 54 53 53 54 55 55 56 57 58 59 59 59 60 61 61 61 62 61 61 60 59 58 58 58 58 60 60 60 64 67 69 66 63 nan nan nan nan nan nan nan nan nan nan nan nan nan nan nan nan nan nan nan
nan nan nan nan nan nan nan nan nan nan nan nan nan nan nan nan nan nan nan nan 63 62 60 60 60 60 61 60 60 60 60 59 59 58 58 58 58 59 60 61 62 62 61 61 61 61 62 62 63 64 64 64 64 62 61 61 61 61 61 62 66 71 70 nan nan nan nan nan nan nan nan nan nan nan nan nan nan nan nan nan nan nan nan nan nan
nan nan nan nan nan nan nan nan nan nan nan nan nan nan nan nan nan nan nan nan nan nan nan 66 nan 66 65 64 64 64 64 64 63 62 62 62 62 63 63 64 65 65 66 66 66 65 64 64 64 65 65 66 65 64 63 63 63 63 65 68 70 nan nan nan nan nan nan nan nan nan nan nan nan nan nan nan nan nan nan nan nan nan nan nan nan
Wind_Direction
292 270 259 254 258 263 268 263 262 246 253 252 257 256 252 251 252 236 234 232 233 243 241 254 267 277 298 306 333 315 318 19 91 103 87 84 89 82 80 45 39 43 47 57 56 45 39 39 39 38 45 52 57 69 74 60 44 55 58 58 59 61 64 69 74 80 80 68 73 76 78 80 61 33 28 23 26 18 19 19 16 10 9 11 12
297 282 270 262 265 268 270 267 263 253 259 257 258 258 256 253 254 250 249 248 249 258 259 255 261 276 291 297 296 280 272 249 72 139 76 78 68 67 69 63 28 33 38 40 47 53 41 33 36 38 35 43 53 53 54 74 48 31 28 48 62 72 47 53 65 70 83 73 73 62 62 48 55 42 34 39 43 33 24 23 18 15 18 19 15
300 284 276 269 269 268 268 267 265 267 271 265 272 271 265 260 254 257 254 256 255 257 266 268 260 270 277 271 257 195 223 232 211 195 60 37 44 55 44 40 35 25 26 30 31 33 39 35 32 28 34 39 39 50 59 58 71 72 29 16 36 60 71 47 55 71 78 78 55 69 59 48 45 48 31 34 37 32 32 29 24 21 19 15 13
294 290 286 287 281 272 269 268 276 275 275 269 277 277 272 269 262 260 259 252 260 257 266 275 268 269 277 268 260 211 215 231 240 263 329 356 11 29 33 14 18 24 27 24 25 22 22 25 31 25 21 31 34 34 38 48 57 59 107 144 337 29 55 75 45 53 62 79 53 48 57 64 68 56 39 36 41 40 33 30 26 29 27 21 21
296 295 296 296 290 280 281 277 277 279 278 272 280 281 278 276 269 270 267 259 260 260 258 268 267 269 277 269 254 247 227 242 256 281 291 315 338 352 5 5 360 6 17 24 24 19 16 17 18 17 14 19 21 24 29 38 31 34 39 28 45 193 183 162 120 90 76 74 77 27 32 45 51 52 39 45 45 42 38 32 35 37 29 22 18
306 295 294 295 292 296 290 284 286 285 281 276 279 280 279 278 277 272 272 266 259 265 264 263 262 266 266 267 256 250 241 242 256 270 302 306 312 331 336 348 358 355 360 10 22 24 19 10 13 6 5 7 12 13 11 19 18 19 23 21 286 284 304 134 132 106 95 91 92 100 24 68 68 56 51 42 40 40 32 25 20 20 19 18 13
306 302 301 302 294 300 300 295 289 287 277 270 267 271 276 280 280 280 275 271 270 273 275 268 259 261 264 263 262 254 252 250 253 267 277 286 301 315 327 334 345 350 354 3 13 19 23 16 6 5 359 351 351 356 356 360 1 4 360 358 339 254 230 229 227 166 85 97 84 30 63 57 59 74 55 37 30 22 26 24 21 13 14 13 9
314 308 307 302 297 303 301 299 296 286 276 264 259 266 270 272 273 273 273 277 280 277 281 278 264 262 265 266 262 259 260 258 259 267 274 280 291 304 316 322 335 340 344 353 7 17 14 15 16 5 360 344 338 330 333 337 331 345 347 327 301 282 256 218 207 213 190 187 10 29 20 53 55 55 54 40 32 19 12 15 21 7 2 359 359
310 314 311 310 303 298 289 291 289 286 284 275 268 264 265 264 265 269 272 274 275 274 274 280 275 270 269 269 268 267 270 268 263 268 276 282 282 297 311 320 326 330 336 348 356 3 13 14 9 10 350 356 352 342 340 331 310 316 323 314 301 289 266 245 229 225 214 222 228 321 14 31 37 46 43 27 22 21 4 359 5 2 356 354 351
292 306 315 310 301 296 291 287 286 288 290 289 280 269 264 263 266 267 273 274 268 266 264 270 279 277 273 275 273 272 271 269 276 297 292 282 285 291 298 310 320 324 329 337 349 353 4 15 17 16 7 356 351 350 351 353 346 329 297 301 312 296 269 241 244 252 261 279 328 332 352 1 2 357 357 350 345 340 350 342 335 334 340 352 354
291 296 302 298 293 294 294 290 287 289 292 292 288 279 272 267 262 262 266 272 268 266 264 268 277 278 278 279 282 279 279 278 296 296 300 305 292 287 291 299 312 322 327 328 337 346 347 351 354 12 357 339 342 349 349 350 352 359 8 344 298 277 258 254 244 253 268 288 300 314 326 346 349 340 343 335 331 325 319 319 328 330 336 341 351
294 283 280 280 285 298 301 297 293 291 288 292 293 289 279 272 268 264 265 273 269 266 269 268 269 276 277 280 282 282 278 284 297 301 303 306 300 289 289 291 303 316 325 330 332 335 341 339 334 340 324 328 313 328 341 347 347 356 7 11 13 346 281 256 239 235 247 254 274 291 291 317 301 297 306 311 299 294 311 321 327 333 338 338 338
279 272 273 279 287 295 298 301 301 296 294 294 292 292 289 283 279 275 272 268 269 268 267 269 268 270 276 278 280 280 278 288 295 303 304 305 309 296 285 288 297 309 318 328 327 325 323 321 317 301 314 341 336 318 315 317 336 356 1 12 15 0 2 294 262 252 244 244 245 255 283 268 275 286 286 291 288 301 318 333 328 326 328 333 336
273 276 273 275 280 289 295 302 306 303 294 291 290 296 298 293 290 282 275 269 270 273 271 269 267 267 269 276 277 275 276 281 296 302 305 308 309 303 283 286 292 299 309 316 318 319 318 316 312 306 297 293 294 312 308 305 293 296 300 285 278 300 287 241 214 232 267 267 267 286 301 275 288 289 292 290 298 312 318 332 322 320 325 331 326
273 275 270 266 269 278 290 298 304 300 297 294 293 298 302 294 292 286 283 277 273 273 274 271 269 269 271 270 273 279 277 285 293 299 304 308 311 296 285 281 277 286 294 298 305 313 314 316 311 307 299 297 294 294 298 297 287 283 289 289 283 271 262 261 261 260 257 268 286 298 300 294 301 313 316 312 320 329 328 321 314 314 319 319 327
273 276 273 271 270 274 281 290 296 299 300 300 301 303 301 298 294 287 283 283 276 272 271 272 273 273 272 272 271 277 277 286 293 297 302 304 308 281 280 278 270 266 272 281 291 301 310 312 308 308 302 297 305 325 318 291 280 283 281 276 268 265 267 270 279 277 272 273 287 302 301 321 330 326 316 309 306 297 295 302 307 313 313 316 322
275 285 285 280 278 275 277 284 291 297 301 304 308 309 304 299 292 283 285 286 285 283 279 278 269 273 274 272 273 270 271 281 293 298 299 303 287 276 289 277 273 270 258 258 264 279 294 303 306 305 305 299 307 315 325 311 279 273 269 269 266 262 263 265 296 318 310 318 319 322 330 334 350 327 297 290 299 293 296 302 319 317 315 317 321
283 291 292 287 284 279 274 277 283 292 298 308 307 304 297 292 292 286 287 288 291 290 284 278 275 275 276 277 278 272 270 276 293 294 299 297 295 284 285 278 271 265 259 262 267 273 282 305 309 303 300 296 309 317 317 305 283 268 258 262 265 260 255 253 249 260 297 313 321 324 325 322 281 283 291 292 301 302 307 324 322 310 318 318 320
290 300 298 292 284 275 270 271 277 288 298 301 298 298 301 292 286 280 285 286 282 277 277 280 280 277 281 282 284 278 274 275 291 293 295 295 295 283 279 272 264 259 263 269 280 285 292 302 321 315 303 306 314 311 315 304 287 272 257 254 262 263 256 252 254 250 258 264 260 267 269 292 298 295 301 325 327 324 319 323 313 313 316 320 320
295 296 289 283 277 274 269 266 272 282 288 291 291 292 287 289 290 289 286 282 277 277 279 283 289 284 281 281 277 279 282 271 283 296 296 299 303 283 271 266 259 261 265 273 281 290 299 301 311 327 334 329 325 318 312 314 295 272 258 255 259 265 262 263 264 261 255 260 270 286 295 289 296 304 305 307 314 318 320 319 318 319 320 319 320
283 280 282 285 282 279 273 267 272 273 276 281 287 287 291 294 293 288 291 284 275 273 280 282 289 283 284 277 274 282 277 275 275 296 296 300 307 298 272 268 261 261 268 277 284 290 295 299 300 314 329 334 331 323 311 313 306 276 264 257 257 258 258 260 260 251 254 252 253 260 275 288 294 301 304 307 307 309 311 316 315 313 307 306 306
278 280 284 282 280 280 276 267 269 268 266 275 282 285 285 289 286 288 287 279 275 275 274 274 280 282 280 274 269 267 273 290 263 288 298 303 309 318 277 273 272 271 276 279 285 288 292 296 301 309 320 326 328 321 316 307 310 281 266 261 258 263 263 265 264 263 260 259 260 267 274 278 287 286 284 283 289 288 282 293 301 298 301 302 305
275 277 279 277 274 273 269 272 268 271 270 278 283 284 283 285 281 281 283 276 272 274 274 272 272 274 274 271 266 264 259 265 282 280 298 303 310 316 316 284 292 280 280 283 288 292 294 296 295 308 314 318 323 327 327 328 301 290 294 272 260 264 265 268 272 271 266 262 262 265 271 278 282 286 289 296 293 288 288 291 296 298 297 303 302
269 271 274 275 271 269 268 270 270 271 274 275 279 281 284 281 276 276 279 273 268 267 268 271 269 271 271 268 265 255 252 244 266 289 285 305 307 319 325 312 289 288 286 284 283 290 300 300 291 304 317 321 325 328 333 328 308 313 302 289 270 259 260 269 274 275 271 269 273 274 279 284 285 285 289 290 290 288 289 294 294 294 296 297 304
266 267 270 270 267 266 264 263 268 271 272 275 277 282 283 279 274 273 272 268 263 262 264 266 271 270 261 253 244 239 240 242 247 266 294 303 311 316 324 325 306 298 294 285 292 278 266 262 257 270 310 326 330 332 326 328 331 320 306 298 280 265 270 277 281 280 280 278 276 277 279 284 285 288 286 289 287 288 292 293 294 296 302 300 299
263 263 266 266 266 268 267 270 271 271 270 271 275 278 281 278 274 269 266 260 253 254 257 260 263 261 252 238 232 232 236 232 240 250 257 282 293 315 323 324 324 314 305 296 282 278 279 266 267 272 282 290 299 302 306 313 325 325 307 289 278 275 277 282 287 292 291 284 282 283 283 284 289 288 289 288 288 291 293 292 290 289 290 295 299
258 258 260 262 262 262 266 270 270 271 269 275 282 279 274 277 272 265 261 264 258 252 254 258 257 253 245 238 231 228 231 234 241 247 252 255 253 263 270 272 299 292 266 260 269 272 272 277 279 286 285 310 316 316 314 305 300 292 290 287 285 283 284 285 289 295 297 294 291 289 289 288 282 287 289 288 288 292 294 291 288 289 294 297 299
254 256 260 258 258 261 263 272 272 270 273 279 281 279 275 278 271 263 261 259 259 254 253 252 253 248 241 235 231 229 228 235 239 247 251 253 259 264 270 274 278 281 280 272 277 282 282 277 291 290 292 298 306 310 314 306 306 304 302 300 296 294 292 295 296 293 294 294 290 290 287 284 290 287 288 287 289 292 290 288 288 293 293 294 298
251 254 256 258 258 257 262 260 267 270 272 270 263 265 270 270 259 251 250 249 247 253 249 245 239 238 236 234 237 234 231 233 238 246 265 282 281 277 276 283 285 279 302 313 300 291 291 290 293 295 295 300 302 307 310 310 309 310 311 307 305 304 300 297 299 299 297 294 295 291 287 288 288 287 287 287 289 289 286 285 287 289 293 297 303
247 249 251 254 258 258 258 266 267 265 272 271 263 244 227 231 235 246 251 251 255 244 239 234 234 235 233 234 238 243 244 241 250 274 289 302 307 310 310 307 308 301 309 318 306 299 302 303 300 297 297 297 302 307 312 312 311 312 314 313 308 304 303 303 301 299 297 296 295 293 290 289 289 288 287 287 286 285 286 288 290 293 296 301 305
236 241 242 243 248 253 255 259 261 257 260 258 253 254 246 238 227 219 221 261 250 238 234 238 235 232 238 240 241 233 233 260 268 282 293 303 308 310 306 303 305 311 301 292 291 301 297 298 299 298 299 300 303 307 308 309 309 309 309 306 304 304 300 300 297 293 292 292 289 287 286 285 284 284 284 285 285 284 284 285 289 294 300 304 306
221 229 234 237 241 245 245 249 253 252 249 249 251 255 252 246 231 223 222 234 244 246 245 241 241 242 237 236 245 240 235 239 266 279 291 296 298 295 292 295 301 300 295 298 290 292 291 294 294 297 298 302 303 300 302 304 304 303 301 302 301 299 299 295 289 288 285 284 282 281 278 278 276 277 279 279 279 281 282 283 289 294 299 303 299
203 204 215 229 235 240 240 244 247 243 244 249 250 256 256 251 247 238 228 228 235 238 236 237 238 238 240 237 238 245 247 248 256 269 280 285 284 286 289 293 296 295 284 285 288 291 291 292 292 293 295 297 297 296 297 299 297 297 299 299 296 291 290 290 283 283 284 283 281 278 275 273 273 272 271 270 271 272 278 283 288 290 291 294 296
225 205 196 202 224 234 231 239 243 238 238 245 247 254 253 255 251 247 245 241 237 234 232 231 235 237 234 237 243 246 249 253 257 265 270 274 276 277 276 266 266 279 289 289 287 288 287 287 290 291 291 291 290 290 290 293 293 290 290 292 289 285 282 281 284 281 279 277 274 272 270 270 268 266 266 268 271 270 273 274 280 285 289 290 292
227 214 186 184 206 223 223 232 236 235 232 241 245 249 250 249 249 252 249 247 247 246 244 238 232 231 239 238 236 242 249 256 261 266 269 270 271 273 271 269 271 269 269 276 285 287 288 289 291 291 289 287 286 285 285 286 287 289 287 286 283 278 276 275 274 271 269 267 266 265 268 267 271 272 274 276 276 276 283 284 282 282 286 288 nan
222 224 208 191 195 211 219 219 228 233 232 235 238 240 243 247 247 249 250 251 249 248 248 246 244 241 245 240 240 242 244 247 254 261 269 273 276 277 272 272 272 274 275 279 281 283 283 286 286 285 283 281 281 283 286 283 282 283 281 278 276 275 273 273 270 270 270 270 269 271 276 275 278 280 280 284 289 290 286 284 284 286 286 288 nan
211 218 214 209 206 209 218 223 223 226 229 235 236 238 240 241 242 243 247 248 249 248 246 247 249 247 246 245 247 244 245 249 251 252 253 260 266 269 270 272 272 273 275 277 279 278 278 278 277 275 276 278 280 281 282 284 280 274 269 268 271 274 275 278 278 277 276 277 280 284 287 290 288 283 279 276 273 273 279 284 287 289 292 296 nan
205 202 200 206 218 222 223 225 225 232 233 233 234 239 241 244 244 245 249 252 253 251 251 251 252 254 253 250 249 250 251 252 254 252 253 255 258 260 264 268 270 272 274 275 276 275 275 272 274 275 271 269 267 265 264 266 268 272 277 281 284 285 285 282 281 281 283 285 287 287 287 289 292 289 282 280 284 286 287 291 293 296 297 300 nan
212 204 201 198 210 221 224 223 226 229 231 235 239 237 239 240 245 244 248 252 255 253 252 251 251 251 254 257 256 257 258 256 257 258 259 259 258 260 261 262 264 267 270 272 275 275 277 274 268 266 266 266 267 267 269 269 268 270 277 281 282 283 282 282 284 286 285 282 284 286 282 283 288 289 291 287 290 289 289 290 290 294 300 nan nan
215 213 212 205 206 215 223 225 227 226 226 226 225 226 228 235 237 241 245 247 247 249 252 252 252 251 252 256 257 257 257 257 257 258 260 260 261 261 260 258 256 256 258 262 265 267 269 269 270 267 266 265 265 267 268 272 273 273 274 277 279 279 279 281 283 284 282 283 286 285 288 289 287 283 287 286 286 289 294 297 nan nan nan nan nan
217 220 217 217 213 211 222 224 225 228 231 234 235 235 236 237 239 242 245 249 252 253 253 252 251 248 246 243 243 245 248 252 255 255 255 257 258 257 255 256 256 256 257 258 259 261 262 265 266 267 265 264 264 265 267 270 273 278 280 281 282 282 283 286 287 288 293 296 288 282 285 292 291 289 291 288 286 289 295 nan nan nan nan nan nan
219 224 223 217 213 216 221 224 227 229 231 233 235 237 240 241 242 243 247 250 251 252 252 250 248 246 240 240 242 244 248 248 249 249 249 251 254 256 257 257 256 257 257 258 261 263 263 263 263 262 262 263 266 268 268 267 269 273 277 279 278 277 279 284 287 290 292 292 291 290 291 292 292 288 286 290 293 292 295 nan nan nan nan nan nan
220 224 224 223 219 215 217 223 228 231 232 234 237 239 239 240 241 244 247 247 245 244 245 246 246 244 242 240 242 244 248 250 254 255 256 256 257 258 260 260 260 260 261 262 264 264 264 265 265 264 264 264 263 264 266 268 270 270 271 272 275 278 280 282 284 284 284 284 286 286 286 286 284 284 287 288 290 290 291 295 298 297 nan nan nan
223 222 224 224 225 223 220 222 227 231 234 236 237 236 237 240 241 244 246 245 240 238 239 242 243 244 245 245 247 250 255 257 261 263 263 263 262 263 264 265 265 264 264 264 264 266 267 268 269 269 268 267 266 266 267 269 269 270 270 272 274 275 276 277 279 280 282 285 285 283 283 283 285 286 286 288 289 290 289 287 291 nan nan nan nan
226 226 225 226 225 225 224 223 225 228 231 234 236 236 236 238 240 243 244 244 240 238 238 241 242 246 250 251 254 258 261 264 266 268 267 266 265 265 266 266 265 265 265 264 264 264 266 266 266 266 266 267 267 268 269 270 270 271 272 273 274 275 276 277 278 280 280 280 283 286 288 289 288 nan nan nan nan nan nan nan nan nan nan nan nan
227 228 227 227 226 225 224 223 223 226 229 232 234 234 235 nan nan nan nan nan 242 241 242 245 247 249 251 254 256 257 258 259 261 262 264 265 265 265 265 266 265 265 265 266 266 265 266 267 268 268 267 267 268 270 270 270 271 272 273 274 276 277 277 279 279 279 279 281 282 281 280 278 277 276 nan nan nan nan nan nan nan nan nan nan nan
227 227 227 227 228 227 226 225 225 227 229 231 233 nan nan nan nan nan nan nan 247 246 247 249 250 252 253 254 255 257 258 259 261 262 261 261 260 261 261 261 261 262 262 263 263 264 264 264 266 267 268 268 270 270 271 272 273 274 276 278 280 279 280 282 280 281 284 285 284 283 nan nan nan nan nan nan nan nan nan nan nan nan nan nan nan
nan nan 227 226 229 229 227 225 226 227 230 231 233 nan nan nan nan nan nan 245 247 247 248 250 252 253 254 254 255 257 258 260 261 262 263 262 262 261 261 261 261 262 263 263 263 263 264 265 265 266 267 266 267 268 269 271 272 274 277 278 278 279 277 277 281 283 285 285 286 nan nan nan nan nan nan nan nan nan nan nan nan nan nan nan nan
nan nan nan nan nan 230 230 228 228 230 232 235 nan nan nan nan nan nan nan 247 248 248 248 250 252 253 253 254 254 256 257 259 261 263 264 265 265 264 263 263 263 264 265 265 265 265 266 267 267 268 269 269 269 269 270 271 272 273 275 277 276 272 273 273 279 280 nan nan nan nan nan nan nan nan nan nan nan nan nan nan nan nan nan nan nan
nan nan nan nan nan nan nan nan nan nan nan nan nan nan nan nan nan nan nan nan 250 250 250 250 252 252 252 252 252 254 256 258 260 261 263 265 266 266 264 263 263 264 265 265 265 266 267 267 268 269 270 270 270 270 271 272 273 273 275 275 273 271 273 nan nan nan nan nan nan nan nan nan nan nan nan nan nan nan nan nan nan nan nan nan nan
nan nan nan nan nan nan nan nan nan nan nan nan nan nan nan nan nan nan nan nan nan nan nan 251 nan 252 252 252 252 253 254 256 257 259 260 262 263 264 264 264 263 263 264 264 264 264 264 265 265 266 267 267 268 269 270 271 272 273 271 268 268 nan nan nan nan nan nan nan nan nan nan nan nan nan nan nan nan nan nan nan nan nan nan nan nan